Home > Weather > Suva > Past weeks

Flag for Fiji Weather for the Past 2 Weeks in Suva, Fiji

Now
84 °F

Partly sunny.


Feels Like: 90 °F
Forecast: 73 / 81 °F
Wind: 14 mph from Southeast

Location: Nausori

Current Time: Apr 29, 2016 at 12:56:29 PM

Latest Report: Apr 29, 2016 at 12:00 PM


Visibility: N/A

Pressure: 29.98 "Hg

Humidity: 66%

Dew Point: 72 °F

Location of SuvaLocation

Historic Weather in Suva — Graph

°F

Suva Temperature Yesterday

Maximum temperature yesterday: 82 °F (at 11:00 AM)
Minimum temperature yesterday: 70 °F (at 4:00 AM)
Average temperature yesterday: 77 °F

High & Low Weather Summary for the Past Weeks

 TemperatureHumidityPressure
High86 °F (Apr 25, 11:00 AM)100% (Apr 16, 2:00 PM)30.04 "Hg (Apr 16, 2:00 PM)
Low68 °F (Apr 29, 4:00 AM)58% (Apr 27, 1:00 PM)29.62 "Hg (Apr 17, 3:00 AM)
Average78 °F87%29.84 "Hg
* Reported Apr 14 11:00 AM — Apr 29 11:00 AM, Suva, Weather by CustomWeather, © 2016

Note: Actual official high and low records may vary slightly from our data, if they occured in-between our weather recording intervals... More about our weather records

Advertising

Suva Weather History for the Previous 24 Hours

Scroll right to see more
 ConditionsComfort  
Time TempWeatherWind HumidityBarometerVisibility
11:00 AM
Fri, Apr 29
82 °FPartly sunny.16 mph66%30.01 "HgN/A
10:00 AM81 °FPartly sunny.14 mph74%30.01 "HgN/A
9:00 AM81 °FScattered clouds.12 mph74%30.01 "HgN/A
8:00 AM79 °FPassing clouds.6 mph79%30.01 "HgN/A
7:00 AM70 °FPassing clouds.No wind100%29.98 "HgN/A
6:00 AM68 °FPassing clouds.3 mph100%29.98 "HgN/A
5:00 AM68 °FPassing clouds.3 mph100%29.98 "HgN/A
4:00 AM68 °FPassing clouds.3 mph100%29.98 "HgN/A
3:00 AM70 °FPassing clouds.3 mph94%29.98 "HgN/A
2:00 AM75 °FPassing clouds.3 mph83%29.98 "HgN/A
1:00 AM75 °FPassing clouds.3 mph78%30.01 "HgN/A
12:00 AM75 °FPassing clouds.3 mph78%30.01 "HgN/A
11:00 PM
Thu, Apr 28
77 °FPassing clouds.5 mph69%30.04 "HgN/A
10:00 PM77 °FPassing clouds.9 mph74%30.01 "HgN/A
9:00 PM77 °FPassing clouds.6 mph74%30.01 "HgN/A
8:00 PM79 °FPassing clouds.9 mph74%29.98 "HgN/A
7:00 PM79 °FPassing clouds.8 mph74%29.98 "HgN/A
6:00 PM79 °FPassing clouds.9 mph79%29.95 "HgN/A
5:00 PM81 °FPartly sunny.9 mph74%29.95 "HgN/A
4:00 PM81 °FPartly sunny.13 mph74%29.92 "HgN/A
3:00 PM82 °FPartly sunny.13 mph70%29.92 "HgN/A
2:00 PM82 °FPartly sunny.10 mph70%29.95 "HgN/A
1:00 PM82 °FPartly sunny.9 mph70%29.95 "HgN/A
12:00 PM82 °FPartly sunny.9 mph66%29.95 "HgN/A
Weather by CustomWeather, © 2016

See weather overviewHow to use our weather pages